User: anonymous   Login
Location: Unspecified
(0.0000°N, 0.0000°E)
Time: 12:05:16
(UTC+00:00)
Language:

OGO 1 - Orbit

View from above orbital plane
View from above orbital plane
View from above satellite
View from above satellite

Ground track
Ground track

The orbit data is extracted from the following two-line orbital elements,

1   879U 64054A   17180.03385942 +.00000010 +00000-0 +00000-0 0  9995
2   879 085.8523 330.9974 6214562 199.7063 359.3408 00.37764302004966
Epoch (UTC): 29 June 2017 00:48:45
Eccentricity: 0.6214562
inclination: 85.8523°
perigee height: 24227 km
apogee height: 124715 km
right ascension of ascending node: 330.9974°
argument of perigee: 199.7063°
revolutions per day: 0.37764302
mean anomaly at epoch: 359.3408°
orbit number at epoch: 496

The dashed part of the orbit path shows where the satellite is in the earth's shadow,  

DLR